{"data":{"norad_id":50187,"epoch":"2026-09-20T03:36:05.309280Z","epoch_age_seconds":74962,"freshness":"FRESH","line1":"1 50187U 21125AH  26263.15006145  .00016785  00000+0  90820-3 0  9991","line2":"2 50187  53.2136  82.1865 0002127 132.6600 227.4574 15.14778828266133","mean_motion":15.14778828,"eccentricity":0.0002127,"inclination_deg":53.2136,"raan_deg":82.1865,"arg_perigee_deg":132.66,"mean_anomaly_deg":227.4574,"bstar":0.0009082,"rev_number":26613,"period_min":95.063383074958,"perigee_km":520.18251628648,"apogee_km":523.11768571925,"semimajor_km":6899.7871010029,"source":"CELESTRAK","updated_at":"2026-09-20T09:00:39.417976Z"}}